Weather History for Rogers, AR

Change the Weather History Date:

Monday, February 18, 2013

  Actual Average Record
Temperature  
Mean Temperature 47 °F -  
Max Temperature 59 °F 49 °F 66 °F (2011)
Min Temperature 34 °F 32 °F 12 °F (2006)
Degree Days  
Heating Degree Days 18    
Moisture  
Dew Point 41 °F    
Average Humidity 71    
Maximum Humidity 94    
Minimum Humidity 40    
Precipitation  
Precipitation 0.11 in - - ()
Sea Level Pressure  
Sea Level Pressure 29.77 in    
Wind  
Wind Speed 22 mph (SW)    
Max Wind Speed 30 mph    
Max Gust Speed 39 mph    
Visibility 10 miles    
Events Rain , Thunderstorm    
Averages and records for this station are not official NWS values.
T = Trace of Precipitation, MM = Missing Value Source: NWS Daily Summary

Daily Weather History Graph

Daily Weather History Graph

Search for Another Location

Airport:

Trip Planner

Search our weather history database for the weather conditions in past years. The results will help you decide how hot, cold, wet, or windy it might be!

Date:

Astronomy

Feb. 18, 2013 Rise Set
Actual Time 7:00 AM CST 6:00 PM CST
Civil Twilight 6:34 AM CST 6:26 PM CST
Nautical Twilight 6:04 AM CST 6:57 PM CST
Astronomical Twilight 5:34 AM CST 7:26 PM CST
Moon 11:52 AM CST (2/18) 1:36 AM CST (2/18)
Length of Visible Light 11h 52m
Length of Day
11h 00m
First Quarter, 58% of the Moon is Illuminated
Feb 18
First Quarter
Feb 25
Full
Mar 4
Last Quarter
Mar 11
New
Mar 19
First Quarter

Hourly Weather History & Observations

Time (CST) Temp. Windchill Dew Point Humidity Pressure Visibility Wind Dir Wind Speed Gust Speed Precip Events Conditions
12:57 AM 53.1 °F - 28.9 °F 40% 29.82 in 10.0 mi South 19.6 mph 26.5 mph N/A   Clear
1:57 AM 54.0 °F - 30.9 °F 41% 29.80 in 10.0 mi South 26.5 mph 33.4 mph N/A   Clear
2:57 AM 53.1 °F - 36.0 °F 52% 29.79 in 10.0 mi South 24.2 mph 35.7 mph N/A   Clear
3:57 AM 52.0 °F - 39.0 °F 61% 29.76 in 10.0 mi South 26.5 mph 36.8 mph N/A   Clear
4:57 AM 52.0 °F - 41.0 °F 66% 29.75 in 10.0 mi South 21.9 mph 31.1 mph N/A   Partly Cloudy
5:22 AM 51.8 °F - 42.8 °F 71% 29.76 in 10.0 mi South 18.4 mph 28.8 mph N/A   Mostly Cloudy
5:57 AM 53.1 °F - 43.0 °F 69% 29.74 in 10.0 mi South 23.0 mph 32.2 mph N/A   Overcast
7:57 AM 53.1 °F - 44.1 °F 71% 29.72 in 10.0 mi South 24.2 mph 32.2 mph N/A   Overcast
8:57 AM 54.0 °F - 46.0 °F 75% 29.72 in 10.0 mi South 26.5 mph 36.8 mph N/A   Overcast
9:57 AM 55.0 °F - 46.9 °F 74% 29.70 in 10.0 mi South 28.8 mph 39.1 mph N/A   Overcast
10:57 AM 55.9 °F - 48.0 °F 75% 29.68 in 10.0 mi South 23.0 mph 34.5 mph N/A   Overcast
11:57 AM 55.9 °F - 48.9 °F 77% 29.67 in 10.0 mi South 20.7 mph 27.6 mph N/A   Overcast
12:57 PM 55.9 °F - 51.1 °F 84% 29.62 in 10.0 mi South 25.3 mph 33.4 mph 0.00 in Rain , Thunderstorm Light Rain
1:10 PM 55.4 °F - 51.8 °F 88% 29.62 in 10.0 mi South 25.3 mph 32.2 mph 0.00 in Thunderstorm Overcast
1:13 PM 55.4 °F - 51.8 °F 88% 29.62 in 10.0 mi South 26.5 mph 32.2 mph 0.00 in Thunderstorm Overcast
1:29 PM 59.0 °F - 51.8 °F 77% 29.61 in 10.0 mi SSW 23.0 mph 31.1 mph 0.00 in   Overcast
1:48 PM 57.2 °F - 51.8 °F 82% 29.62 in 10.0 mi SSW 21.9 mph 32.2 mph 0.00 in Rain , Thunderstorm Light Rain
1:53 PM 57.2 °F - 51.8 °F 82% 29.61 in 9.0 mi SSW 20.7 mph 28.8 mph 0.01 in Rain Light Rain
1:57 PM 55.4 °F - 50.0 °F 82% 29.61 in 9.0 mi SW 24.2 mph 36.8 mph 0.01 in Rain Light Rain
1:59 PM 55.0 °F - 48.9 °F 80% 29.61 in 9.0 mi WSW 18.4 mph 36.8 mph 0.01 in Rain Light Rain
2:04 PM 55.4 °F - 50.0 °F 82% 29.62 in 10.0 mi WSW 21.9 mph 36.8 mph 0.00 in Rain , Thunderstorm Light Rain
2:21 PM 53.6 °F - 51.8 °F 94% 29.64 in 9.0 mi West 18.4 mph 27.6 mph 0.10 in Rain , Thunderstorm Light Thunderstorms and Rain
2:32 PM 53.6 °F - 48.2 °F 82% 29.65 in 10.0 mi West 16.1 mph 28.8 mph 0.10 in Rain Light Rain
2:57 PM 55.0 °F - 43.0 °F 64% 29.64 in 10.0 mi West 29.9 mph 35.7 mph 0.10 in   Mostly Cloudy
3:57 PM 51.1 °F - 37.0 °F 59% 29.72 in 10.0 mi WNW 21.9 mph 34.5 mph N/A   Scattered Clouds
4:57 PM 48.9 °F - 36.0 °F 61% 29.79 in 10.0 mi NW 17.3 mph 27.6 mph N/A   Scattered Clouds
5:57 PM 46.9 °F - 34.0 °F 61% 29.85 in 10.0 mi NW 15.0 mph - N/A   Overcast
6:57 PM 44.1 °F 35.2 °F 33.1 °F 65% 29.91 in 10.0 mi NW 23.0 mph 27.6 mph N/A   Scattered Clouds
7:57 PM 39.9 °F 31.8 °F 30.0 °F 68% 29.96 in 10.0 mi NW 15.0 mph - N/A   Scattered Clouds
8:02 PM 41.0 °F 32.8 °F 30.2 °F 65% 29.96 in 10.0 mi NW 16.1 mph 24.2 mph N/A   Mostly Cloudy
8:57 PM 39.9 °F 30.5 °F 30.0 °F 68% 30.01 in 10.0 mi NW 19.6 mph 29.9 mph N/A   Overcast
9:57 PM 37.0 °F 27.4 °F 28.0 °F 70% 30.06 in 10.0 mi NNW 17.3 mph 21.9 mph N/A   Mostly Cloudy
10:04 PM 37.4 °F 28.2 °F 26.6 °F 65% 30.06 in 10.0 mi NNW 16.1 mph 21.9 mph N/A   Scattered Clouds
10:57 PM 35.1 °F 25.5 °F 25.0 °F 67% 30.09 in 10.0 mi NW 15.0 mph - N/A   Clear
11:57 PM 34.0 °F 25.5 °F 23.0 °F 64% 30.14 in 10.0 mi NW 11.5 mph - N/A   Clear